Arbor Vitae, WI

6:44 PM CDT on August 19, 2017 (GMT -0500)
Lakeland-Lee Memorial

Weather History for KARV - August, 2014

Change the Weather History Date:

Wednesday, August 20, 2014

  Actual Average Record
Temperature  
Mean Temperature 66 °F -  
Max Temperature 72 °F 73 °F 92 °F (1976)
Min Temperature 59 °F 51 °F 34 °F (1950)
Growing Degree Days 16 (Base 50)    
Moisture  
Dew Point 59 °F    
Average Humidity 84    
Maximum Humidity 93    
Minimum Humidity 71    
Precipitation  
Precipitation 0.00 in - - ()
Sea Level Pressure  
Sea Level Pressure 29.90 in    
Wind  
Wind Speed 5 mph (NNW)    
Max Wind Speed 13 mph    
Max Gust Speed -    
Visibility 10 miles    
Events      
Averages and records for this station are not official NWS values.
T = Trace of Precipitation, MM = Missing Value Source: NWS Daily Summary

Daily Weather History Graph

Daily Weather History Graph

Search for Another Location

Airport or City:

Trip Planner

Search our weather history database for the weather conditions in past years. The results will help you decide how hot, cold, wet, or windy it might be!

Date:

Astronomy

Aug. 20, 2014 Rise Set
Actual Time 6:04 AM CDT 7:58 PM CDT
Civil Twilight 5:32 AM CDT 8:30 PM CDT
Nautical Twilight 4:53 AM CDT 9:09 PM CDT
Astronomical Twilight 4:10 AM CDT 9:52 PM CDT
Moon 1:38 AM CDT (8/20) 4:49 PM CDT (8/20)
Length of Visible Light 14h 57m
Length of Day
13h 53m
Waning Crescent, 20% of the Moon is Illuminated
Aug 20
Waning Crescent
Aug 25
New
Sep 2
First Quarter
Sep 8
Full
Sep 15
Last Quarter

Hourly Weather History & Observations

Time (CDT) Temp. Dew Point Humidity Pressure Visibility Wind Dir Wind Speed Gust Speed Precip Events Conditions
12:10 AM 61.9 °F 58.6 °F 89% 29.81 in 10.0 mi NNW 5.8 mph - N/A   Overcast
12:30 AM 61.3 °F 58.1 °F 89% 29.81 in 10.0 mi NW 8.1 mph - N/A   Overcast
12:50 AM 59.9 °F 56.7 °F 89% 29.81 in 10.0 mi NNW 6.9 mph - N/A   Overcast
1:10 AM 59.4 °F 56.3 °F 90% 29.80 in 10.0 mi NNW 8.1 mph - N/A   Overcast
1:30 AM 59.4 °F 56.3 °F 90% 29.81 in 10.0 mi NNW 8.1 mph - N/A   Overcast
1:50 AM 59.4 °F 56.5 °F 90% 29.81 in 10.0 mi NNW 5.8 mph - N/A   Overcast
2:10 AM 59.4 °F 56.7 °F 91% 29.80 in 10.0 mi North 8.1 mph - N/A   Overcast
2:30 AM 59.4 °F 56.7 °F 91% 29.81 in 10.0 mi North 12.7 mph - N/A   Overcast
2:50 AM 59.4 °F 56.8 °F 91% 29.81 in 10.0 mi North 8.1 mph - N/A   Overcast
3:10 AM 59.4 °F 56.8 °F 91% 29.81 in 10.0 mi North 8.1 mph - N/A   Overcast
3:30 AM 59.4 °F 56.8 °F 91% 29.82 in 10.0 mi North 6.9 mph - N/A   Overcast
3:50 AM 59.4 °F 56.8 °F 91% 29.82 in 10.0 mi North 4.6 mph - N/A   Overcast
4:10 AM 59.4 °F 56.8 °F 91% 29.83 in 10.0 mi NNW 5.8 mph - N/A   Overcast
4:30 AM 59.4 °F 56.8 °F 91% 29.83 in 10.0 mi NNW 3.5 mph - N/A   Overcast
4:50 AM 59.4 °F 56.8 °F 91% 29.84 in 10.0 mi Calm Calm - N/A   Overcast
5:10 AM 59.4 °F 56.8 °F 91% 29.84 in 5.0 mi North 4.6 mph - N/A   Overcast
5:30 AM 59.4 °F 57.2 °F 93% 29.84 in 4.0 mi North 5.8 mph - N/A   Overcast
5:50 AM 59.4 °F 57.2 °F 93% 29.85 in 5.0 mi North 5.8 mph - N/A   Overcast
6:10 AM 59.4 °F 57.2 °F 93% 29.86 in 7.0 mi NNW 3.5 mph - N/A   Overcast
6:30 AM 59.4 °F 57.2 °F 93% 29.87 in 10.0 mi Calm Calm - N/A   Overcast
6:50 AM 59.4 °F 57.2 °F 93% 29.87 in 10.0 mi North 3.5 mph - N/A   Overcast
7:10 AM 59.4 °F 57.2 °F 93% 29.88 in 10.0 mi North 3.5 mph - N/A   Overcast
7:30 AM 59.4 °F 57.2 °F 93% 29.88 in 10.0 mi NW 3.5 mph - N/A   Overcast
7:50 AM 59.4 °F 57.2 °F 93% 29.88 in 10.0 mi NNW 3.5 mph - N/A   Overcast
8:10 AM 59.4 °F 57.2 °F 93% 29.89 in 10.0 mi NNW 4.6 mph - N/A   Overcast
8:30 AM 59.5 °F 57.2 °F 92% 29.89 in 10.0 mi Calm Calm - N/A   Overcast
8:50 AM 61.9 °F 59.4 °F 91% 29.89 in 10.0 mi North 4.6 mph - N/A   Overcast
9:10 AM 61.9 °F 59.4 °F 91% 29.90 in 10.0 mi NW 4.6 mph - N/A   Overcast
9:30 AM 61.9 °F 59.0 °F 90% 29.91 in 7.0 mi NW 5.8 mph - N/A   Overcast
9:50 AM 61.9 °F 59.2 °F 91% 29.91 in 7.0 mi NNW 5.8 mph - N/A   Overcast
10:10 AM 63.1 °F 59.7 °F 89% 29.91 in 10.0 mi North 8.1 mph - N/A   Overcast
10:30 AM 64.4 °F 60.8 °F 88% 29.90 in 10.0 mi North 5.8 mph - N/A   Overcast
10:50 AM 66.0 °F 60.4 °F 82% 29.91 in 10.0 mi North 3.5 mph - N/A   Overcast
11:10 AM 70.7 °F 62.1 °F 74% 29.91 in 10.0 mi NNE 4.6 mph - N/A   Overcast
11:30 AM 72.0 °F 62.8 °F 73% 29.91 in 10.0 mi ENE 4.6 mph - N/A   Overcast
12:10 PM 69.4 °F 60.3 °F 73% 29.92 in 10.0 mi North 3.5 mph - N/A   Overcast
12:30 PM 72.0 °F 62.6 °F 72% 29.92 in 10.0 mi Calm Calm - N/A   Overcast
12:50 PM 71.1 °F 61.7 °F 72% 29.93 in 10.0 mi SW 4.6 mph - N/A   Overcast
1:10 PM 69.4 °F 60.8 °F 74% 29.93 in 10.0 mi Calm Calm - N/A   Overcast
1:30 PM 70.5 °F 62.1 °F 74% 29.92 in 10.0 mi Calm Calm - N/A   Overcast
1:50 PM 72.0 °F 62.2 °F 71% 29.91 in 10.0 mi NNW 6.9 mph - N/A   Overcast
2:10 PM 71.6 °F 62.4 °F 73% 29.92 in 10.0 mi NNW 4.6 mph - N/A   Overcast
2:30 PM 72.0 °F 62.6 °F 72% 29.91 in 10.0 mi Calm Calm - N/A   Overcast
2:50 PM 72.0 °F 62.1 °F 71% 29.91 in 10.0 mi North 3.5 mph - N/A   Overcast
3:10 PM 72.0 °F 62.8 °F 73% 29.92 in 10.0 mi Calm Calm - N/A   Overcast
3:30 PM 72.0 °F 63.1 °F 74% 29.93 in 10.0 mi Calm Calm - N/A   Overcast
3:50 PM 69.4 °F 60.8 °F 74% 29.94 in 10.0 mi Calm Calm - N/A   Overcast
4:10 PM 69.4 °F 61.2 °F 75% 29.94 in 10.0 mi NW 3.5 mph - N/A   Overcast
4:30 PM 69.4 °F 61.7 °F 76% 29.94 in 10.0 mi West 3.5 mph - N/A   Overcast
4:50 PM 69.4 °F 61.3 °F 75% 29.94 in 10.0 mi Calm Calm - N/A   Overcast
5:10 PM 69.4 °F 61.3 °F 75% 29.94 in 10.0 mi Calm Calm - N/A   Overcast
5:30 PM 69.4 °F 61.2 °F 75% 29.94 in 10.0 mi Calm Calm - N/A   Overcast
5:50 PM 69.4 °F 61.3 °F 75% 29.94 in 10.0 mi NNW 3.5 mph - N/A   Overcast
6:10 PM 69.4 °F 61.7 °F 76% 29.95 in 10.0 mi Calm Calm - N/A   Overcast
6:30 PM 69.3 °F 61.9 °F 77% 29.94 in 10.0 mi Calm Calm - N/A   Overcast
6:50 PM 67.1 °F 59.5 °F 77% 29.95 in 10.0 mi NNE 3.5 mph - N/A   Overcast
7:10 PM 67.1 °F 59.9 °F 78% 29.95 in 10.0 mi NNE 4.6 mph - N/A   Overcast
7:30 PM 67.1 °F 60.8 °F 80% 29.95 in 10.0 mi Calm Calm - N/A   Overcast
7:50 PM 65.7 °F 59.5 °F 81% 29.95 in 10.0 mi Calm Calm - N/A   Overcast
8:10 PM 65.7 °F 60.4 °F 83% 29.96 in 10.0 mi Calm Calm - N/A   Overcast
8:30 PM 64.9 °F 59.7 °F 83% 29.96 in 10.0 mi North 3.5 mph - N/A   Overcast
9:30 PM 64.4 °F 59.9 °F 85% 29.96 in 10.0 mi NNE 4.6 mph - N/A   Overcast
10:10 PM 64.4 °F 60.1 °F 86% 29.98 in 10.0 mi Calm Calm - N/A   Overcast
10:30 PM 64.2 °F 59.9 °F 86% 29.98 in 10.0 mi Calm Calm - N/A   Overcast
10:50 PM 63.3 °F 59.0 °F 86% 29.98 in 10.0 mi Calm Calm - N/A   Overcast
11:10 PM 63.5 °F 59.4 °F 86% 29.98 in 10.0 mi Calm Calm - N/A   Overcast